FLOCK 2K-06 (42897 NORAD) Tracking and Keplerian Element Data

This shows tracking and keplerian element data for the satellite.

Feedback or suggestion? Click here.




ElementValue
Catalog42897
NameFLOCK 2K-06
Epoch Orbit3279
Epoch Day45.44404429
Epoch Year2018
RAAN308.2542
Inclination96.9929
Eccentricity0.0010586
Argument of Perigee186.3496
Mean Anonmoly173.7616
Mean Motion15.35660907
Decay Rate7.61E-05
L11 42897U 17042CA 18045.44404429 .00007610 00000-0 22126-3 0 9993
L22 42897 96.9929 308.2542 0010586 186.3496 173.7616 15.35660907 32791

Live tracking and technical data element details for FLOCK 2K-06 (NORAD 42897). FLOCK 2K-06 can be tracked NOW for your location showing map with azimuth and elevation plus other details from your city location.

Track the satellite on the map from your city or location and see movement details for azimuth, elevation, latitude, longitude, range, height, and movement on the map or in text.







IsCatalogInMostPopularTable: catalog: 42897, numindb: 161
Update: records affected: 1



GetName: 42897 FLOCK 2K-06

Hit Count: updated at: Wed, 14 Nov 2018 11:46:33 GMT